User: anonymous   Login
Location: Unspecified
(0.0000°N, 0.0000°E)
Time: 12:26:25
(UTC+00:00)
Language:

OPTUS D3 - Orbit

View from above orbital plane
View from above orbital plane
View from above satellite
View from above satellite

Ground track
Ground track

The orbit data is extracted from the following two-line orbital elements,

1 35756U 09044B   16209.55655630 -.00000164  00000-0  00000+0 0  9997
2 35756   0.0460 341.3827 0002965 129.6347 191.0021  1.00272375 25413
Epoch (UTC): 27 July 2016 13:21:26
Eccentricity: 0.0002965
inclination: 0.0460°
perigee height: 35773 km
apogee height: 35798 km
right ascension of ascending node: 341.3827°
argument of perigee: 129.6347°
revolutions per day: 1.00272375
mean anomaly at epoch: 191.0021°
orbit number at epoch: 2541

The dashed part of the orbit path shows where the satellite is in the earth's shadow,  

DLR